| time (UTC) | temp F | wind direction | speed MPH | gust MPH | rain 1hr in | rain 24hr in | rain mn in | humidity % | barometer mb |
| 20260508194710 | 75 | 302 | 9.0 | 12.0 | 0.00 | 0.00 | 0.00 | 33 | 1005.8 |
| 20260508193710 | 78 | 304 | 6.0 | 15.0 | 0.00 | 0.00 | 0.00 | 28 | 1005.8 |
| 20260508192710 | 77 | 269 | 7.0 | 16.0 | 0.00 | 0.00 | 0.00 | 28 | 1005.9 |
| 20260508191710 | 76 | 288 | 10.0 | 20.0 | 0.00 | 0.00 | 0.00 | 30 | 1006.2 |
| 20260508190710 | 74 | 322 | 10.0 | 14.0 | 0.00 | 0.00 | 0.00 | 35 | 1006.4 |
| 20260508185710 | 74 | 313 | 6.0 | 17.0 | 0.00 | 0.00 | 0.00 | 31 | 1006.4 |
| 20260508184711 | 75 | 321 | 10.0 | 24.0 | 0.00 | 0.00 | 0.00 | 31 | 1006.5 |
| 20260508183711 | 76 | 251 | 8.0 | 16.0 | 0.00 | 0.00 | 0.00 | 33 | 1006.5 |
| 20260508182710 | 75 | 294 | 6.0 | 14.0 | 0.00 | 0.00 | 0.00 | 33 | 1006.5 |
| 20260508181711 | 74 | 327 | 13.0 | 25.0 | 0.00 | 0.00 | 0.00 | 34 | 1006.7 |
| 20260508180710 | 75 | 209 | 11.0 | 16.0 | 0.00 | 0.00 | 0.00 | 32 | 1006.7 |
| 20260508175711 | 74 | 326 | 6.0 | 12.0 | 0.00 | 0.00 | 0.00 | 40 | 1006.8 |
| 20260508174711 | 73 | 260 | 5.0 | 12.0 | 0.00 | 0.00 | 0.00 | 36 | 1006.8 |
| 20260508173710 | 73 | 234 | 5.0 | 10.0 | 0.00 | 0.00 | 0.00 | 34 | 1006.8 |
| 20260508170711 | 73 | 218 | 7.0 | 13.0 | 0.00 | 0.00 | 0.00 | 34 | 1007.5 |
| 20260508165711 | 74 | 221 | 6.0 | 13.0 | 0.00 | 0.00 | 0.00 | 34 | 1007.7 |
| 20260508164710 | 73 | 333 | 2.0 | 10.0 | 0.00 | 0.00 | 0.00 | 38 | 1007.7 |
| 20260508163710 | 72 | 223 | 7.0 | 14.0 | 0.00 | 0.00 | 0.00 | 36 | 1007.9 |
| 20260508162711 | 72 | 218 | 4.0 | 14.0 | 0.00 | 0.00 | 0.00 | 37 | 1007.8 |
| 20260508161711 | 71 | 221 | 3.0 | 12.0 | 0.00 | 0.00 | 0.00 | 35 | 1007.9 |
| 20260508160711 | 71 | 220 | 7.0 | 13.0 | 0.00 | 0.00 | 0.00 | 39 | 1008.0 |
| 20260508155711 | 70 | 246 | 6.0 | 13.0 | 0.00 | 0.00 | 0.00 | 40 | 1008.1 |
| 20260508154711 | 70 | 277 | 3.0 | 9.0 | 0.00 | 0.00 | 0.00 | 41 | 1008.1 |
| 20260508152710 | 68 | 248 | 6.0 | 10.0 | 0.00 | 0.00 | 0.00 | 41 | 1008.3 |
| 20260508151711 | 68 | 261 | 4.0 | 8.0 | 0.00 | 0.00 | 0.00 | 41 | 1008.3 |
| 20260508150710 | 67 | 272 | 5.0 | 9.0 | 0.00 | 0.00 | 0.00 | 42 | 1008.4 |
| 20260508145711 | 67 | 237 | 4.0 | 7.0 | 0.00 | 0.00 | 0.00 | 45 | 1008.4 |
| 20260508144710 | 66 | 218 | 5.0 | 7.0 | 0.00 | 0.00 | 0.00 | 47 | 1008.6 |
| 20260508142710 | 65 | 234 | 2.0 | 5.0 | 0.00 | 0.00 | 0.00 | 49 | 1008.6 |
| 20260508141710 | 64 | 258 | 2.0 | 6.0 | 0.00 | 0.00 | 0.00 | 53 | 1008.7 |
| 20260508140710 | 64 | 261 | 1.0 | 2.0 | 0.00 | 0.00 | 0.00 | 52 | 1008.6 |
| 20260508135710 | 64 | 246 | 1.0 | 3.0 | 0.00 | 0.00 | 0.00 | 53 | 1008.6 |
| 20260508133710 | 62 | 217 | 0.0 | 3.0 | 0.00 | 0.00 | 0.00 | 55 | 1008.5 |
| 20260508131710 | 59 | 86 | 0.0 | 1.0 | 0.00 | 0.00 | 0.00 | 62 | 1008.5 |
| 20260508125710 | 55 | 121 | 0.0 | 0.0 | 0.00 | 0.00 | 0.00 | 66 | 1008.4 |
| 20260508124710 | 54 | 121 | 0.0 | 0.0 | 0.00 | 0.00 | 0.00 | 68 | 1008.4 |
| 20260508123710 | 53 | 121 | 0.0 | 0.0 | 0.00 | 0.00 | 0.00 | 69 | 1008.4 |
| 20260508122710 | 53 | 109 | 0.0 | 0.0 | 0.00 | 0.00 | 0.00 | 70 | 1008.2 |
| 20260508121710 | 53 | 109 | 0.0 | 0.0 | 0.00 | 0.00 | 0.00 | 69 | 1008.2 |
| 20260508120710 | 53 | 109 | 0.0 | 0.0 | 0.00 | 0.00 | 0.00 | 67 | 1008.0 |
| 20260508115710 | 53 | 109 | 0.0 | 0.0 | 0.00 | 0.00 | 0.00 | 67 | 1008.1 |
| 20260508114710 | 53 | 109 | 0.0 | 0.0 | 0.00 | 0.00 | 0.00 | 65 | 1008.2 |
| 20260508113710 | 53 | 109 | 0.0 | 0.0 | 0.00 | 0.00 | 0.00 | 64 | 1008.2 |
| 20260508112711 | 53 | 109 | 0.0 | 0.0 | 0.00 | 0.00 | 0.00 | 63 | 1008.1 |
| 20260508111710 | 53 | 109 | 0.0 | 2.0 | 0.00 | 0.00 | 0.00 | 64 | 1008.1 |
| 20260508110710 | 53 | 107 | 0.0 | 2.0 | 0.00 | 0.00 | 0.00 | 63 | 1008.1 |
| 20260508105710 | 53 | 99 | 0.0 | 1.0 | 0.00 | 0.00 | 0.00 | 62 | 1008.5 |
| 20260508104710 | 53 | 98 | 0.0 | 3.0 | 0.00 | 0.00 | 0.00 | 60 | 1008.4 |
| 20260508103710 | 53 | 157 | 1.0 | 6.0 | 0.00 | 0.00 | 0.00 | 60 | 1008.5 |
| 20260508101710 | 54 | 175 | 2.0 | 3.0 | 0.00 | 0.00 | 0.00 | 54 | 1008.9 |
| 20260508100710 | 54 | 130 | 3.0 | 7.0 | 0.00 | 0.00 | 0.00 | 55 | 1009.3 |
| 20260508095711 | 55 | 329 | 3.0 | 10.0 | 0.00 | 0.00 | 0.00 | 47 | 1009.6 |
| 20260508094711 | 53 | 65 | 4.0 | 9.0 | 0.00 | 0.00 | 0.00 | 54 | 1009.4 |
| 20260508093711 | 53 | 53 | 2.0 | 3.0 | 0.00 | 0.00 | 0.00 | 53 | 1009.5 |
| 20260508092711 | 53 | 65 | 0.0 | 0.0 | 0.00 | 0.00 | 0.00 | 49 | 1009.3 |
| 20260508091710 | 54 | 65 | 0.0 | 2.0 | 0.00 | 0.00 | 0.00 | 47 | 1009.0 |
| 20260508090710 | 54 | 73 | 0.0 | 3.0 | 0.00 | 0.00 | 0.00 | 45 | 1009.0 |
| 20260508085710 | 54 | 107 | 0.0 | 2.0 | 0.00 | 0.00 | 0.00 | 44 | 1009.0 |
| 20260508084710 | 54 | 140 | 1.0 | 3.0 | 0.00 | 0.00 | 0.00 | 44 | 1009.0 |
| 20260508083711 | 54 | 121 | 1.0 | 3.0 | 0.00 | 0.00 | 0.00 | 43 | 1009.1 |
| 20260508082710 | 54 | 26 | 1.0 | 3.0 | 0.00 | 0.00 | 0.00 | 44 | 1008.9 |
| 20260508081710 | 54 | 61 | 2.0 | 5.0 | 0.00 | 0.00 | 0.00 | 43 | 1009.0 |
| 20260508080710 | 54 | 68 | 1.0 | 5.0 | 0.00 | 0.00 | 0.00 | 45 | 1008.9 |
| 20260508075711 | 54 | 34 | 2.0 | 5.0 | 0.00 | 0.00 | 0.00 | 45 | 1009.0 |
| 20260508072710 | 55 | 38 | 0.0 | 2.0 | 0.00 | 0.00 | 0.00 | 42 | 1009.4 |
| 20260508071710 | 55 | 38 | 2.0 | 3.0 | 0.00 | 0.00 | 0.00 | 42 | 1009.2 |
| 20260508070710 | 55 | 134 | 0.0 | 2.0 | 0.00 | 0.00 | 0.00 | 39 | 1009.4 |
| 20260508064710 | 56 | 96 | 1.0 | 3.0 | 0.00 | 0.00 | 0.00 | 40 | 1009.2 |
| 20260508063710 | 56 | 160 | 2.0 | 3.0 | 0.00 | 0.00 | 0.00 | 37 | 1009.8 |
| 20260508062710 | 56 | 55 | 1.0 | 6.0 | 0.00 | 0.00 | 0.00 | 39 | 1009.4 |
| 20260508054710 | 57 | 105 | 2.0 | 5.0 | 0.00 | 0.00 | 0.00 | 36 | 1009.2 |
| 20260508053711 | 56 | 71 | 2.0 | 3.0 | 0.00 | 0.00 | 0.00 | 37 | 1009.2 |
| 20260508052710 | 56 | 68 | 1.0 | 3.0 | 0.00 | 0.00 | 0.00 | 37 | 1009.2 |
| 20260508051711 | 56 | 79 | 2.0 | 3.0 | 0.00 | 0.00 | 0.00 | 39 | 1009.1 |
| 20260508050710 | 56 | 80 | 1.0 | 3.0 | 0.00 | 0.00 | 0.00 | 40 | 1009.3 |
| 20260508044710 | 56 | 49 | 1.0 | 3.0 | 0.00 | 0.00 | 0.00 | 36 | 1009.0 |
| 20260508043710 | 57 | 49 | 2.0 | 3.0 | 0.00 | 0.00 | 0.00 | 36 | 1009.2 |
| 20260508041711 | 57 | 110 | 0.0 | 0.0 | 0.00 | 0.00 | 0.00 | 36 | 1009.4 |
| 20260508040710 | 58 | 110 | 0.0 | 2.0 | 0.00 | 0.00 | 0.00 | 36 | 1009.4 |
| 20260508035711 | 58 | 68 | 0.0 | 2.0 | 0.00 | 0.00 | 0.00 | 34 | 1009.4 |
| 20260508033710 | 58 | 90 | 0.0 | 2.0 | 0.00 | 0.00 | 0.00 | 35 | 1009.4 |
| 20260508032711 | 58 | 86 | 1.0 | 2.0 | 0.00 | 0.00 | 0.00 | 36 | 1009.4 |
| 20260508030710 | 57 | 51 | 0.0 | 0.0 | 0.00 | 0.00 | 0.00 | 35 | 1009.3 |
| 20260508025710 | 57 | 48 | 0.0 | 3.0 | 0.00 | 0.00 | 0.00 | 36 | 1009.1 |
| 20260508024710 | 57 | 89 | 1.0 | 2.0 | 0.00 | 0.00 | 0.00 | 36 | 1009.2 |
| 20260508022711 | 58 | 98 | 1.0 | 2.0 | 0.00 | 0.00 | 0.00 | 37 | 1008.9 |
| 20260508021710 | 59 | 64 | 0.0 | 2.0 | 0.00 | 0.00 | 0.00 | 35 | 1008.9 |
| 20260508020710 | 60 | 64 | 0.0 | 3.0 | 0.00 | 0.00 | 0.00 | 33 | 1008.5 |
| 20260508015710 | 60 | 53 | 1.0 | 3.0 | 0.00 | 0.00 | 0.00 | 32 | 1008.6 |
| 20260508014710 | 61 | 46 | 1.0 | 3.0 | 0.00 | 0.00 | 0.00 | 30 | 1008.6 |
| 20260508013711 | 63 | 45 | 2.0 | 3.0 | 0.00 | 0.00 | 0.00 | 28 | 1008.5 |
| 20260508012710 | 64 | 55 | 1.0 | 5.0 | 0.00 | 0.00 | 0.00 | 28 | 1008.4 |
| 20260508011710 | 65 | 36 | 1.0 | 3.0 | 0.00 | 0.00 | 0.00 | 27 | 1008.4 |
| 20260508010710 | 66 | 24 | 1.0 | 3.0 | 0.00 | 0.00 | 0.00 | 25 | 1008.4 |
| 20260508005710 | 67 | 13 | 3.0 | 8.0 | 0.00 | 0.00 | 0.00 | 24 | 1008.3 |
| 20260508004710 | 68 | 314 | 2.0 | 9.0 | 0.00 | 0.00 | 0.00 | 28 | 1008.3 |
| 20260508002710 | 69 | 322 | 2.0 | 8.0 | 0.00 | 0.00 | 0.00 | 26 | 1008.1 |
| 20260508001711 | 70 | 5 | 3.0 | 8.0 | 0.00 | 0.00 | 0.00 | 25 | 1008.3 |
| 20260507235710 | 70 | 268 | 7.0 | 14.0 | 0.00 | 0.00 | 0.00 | 27 | 1008.2 |
| 20260507234711 | 69 | 317 | 4.0 | 12.0 | 0.00 | 0.00 | 0.00 | 27 | 1008.1 |
| 20260507230711 | 71 | 319 | 9.0 | 14.0 | 0.00 | 0.00 | 0.00 | 27 | 1008.1 |
| 20260507225711 | 72 | 295 | 9.0 | 14.0 | 0.00 | 0.00 | 0.00 | 27 | 1008.3 |
| 20260507224710 | 71 | 321 | 6.0 | 12.0 | 0.00 | 0.00 | 0.00 | 27 | 1008.2 |
| 20260507223710 | 72 | 304 | 3.0 | 13.0 | 0.00 | 0.00 | 0.00 | 26 | 1008.1 |
| 20260507222710 | 72 | 297 | 3.0 | 12.0 | 0.00 | 0.00 | 0.00 | 28 | 1008.2 |
| 20260507221710 | 72 | 324 | 9.0 | 14.0 | 0.00 | 0.00 | 0.00 | 28 | 1008.2 |
| 20260507220710 | 72 | 321 | 10.0 | 15.0 | 0.00 | 0.00 | 0.00 | 29 | 1008.2 |
| 20260507215710 | 71 | 270 | 3.0 | 14.0 | 0.00 | 0.00 | 0.00 | 24 | 1008.3 |
| 20260507214711 | 72 | 258 | 7.0 | 16.0 | 0.00 | 0.00 | 0.00 | 27 | 1008.3 |
| 20260507212710 | 72 | 252 | 5.0 | 12.0 | 0.00 | 0.00 | 0.00 | 26 | 1008.4 |
| 20260507211710 | 71 | 261 | 5.0 | 14.0 | 0.00 | 0.00 | 0.00 | 31 | 1008.5 |
| 20260507210710 | 72 | 298 | 9.0 | 18.0 | 0.00 | 0.00 | 0.00 | 29 | 1008.6 |
| 20260507204711 | 71 | 9 | 1.0 | 15.0 | 0.00 | 0.00 | 0.00 | 26 | 1008.7 |
| 20260507203712 | 72 | 300 | 7.0 | 15.0 | 0.00 | 0.00 | 0.00 | 29 | 1008.9 |
| 20260507202710 | 71 | 5 | 7.0 | 12.0 | 0.00 | 0.00 | 0.00 | 30 | 1008.9 |
| 20260507201710 | 72 | 311 | 9.0 | 20.0 | 0.00 | 0.00 | 0.00 | 33 | 1009.1 |
| 20260507200710 | 71 | 288 | 8.0 | 21.0 | 0.00 | 0.00 | 0.00 | 31 | 1009.1 |